Back to catalog

DELTA 1 DEB

AliveSSO
NORAD 7142·DEBRIS·🇺🇸 United States

Launched Nov 6, 1973 from Vandenberg Space Force Base

Loading…

Next Passes (next 24 hours)

TLE

FreshSource: Space-Track

Epoch: Sep 14, 2026, 09:28 UTC

1 07142U 73086DG  26257.39477069 -.00000015  00000-0  23119-3 0  9991
2 07142 101.8496 224.1501 0043932 220.4858 293.2708 12.32092652376504

Track DELTA 1 DEB in real time with AllMySat

Download on the App Store